KC7NGC-B Weather Reports


Display with metric or nautical units.
time (UTC)temp
F
wind
direction
speed
MPH
gust
MPH
rain 1hr
in
rain 24hr
in
rain mn
in
humidity
%
barometer
mb
20260506222633 79 205 10.0 15.0 0.00 0.00 0.00 37 1013.5
20260506221631 79 196 10.0 15.0 0.00 0.00 0.00 34 1013.6
20260506220632 80 220 10.0 15.0 0.00 0.00 0.00 35 1013.8
20260506215624 79 203 10.0 12.0 0.00 0.00 0.00 32 1013.9
20260506214627 80 218 7.0 10.0 0.00 0.00 0.00 33 1013.9
20260506213625 79 200 8.0 12.0 0.00 0.00 0.00 34 1013.9
20260506212624 79 203 11.0 17.0 0.00 0.00 0.00 33 1014.2
20260506211646 79 195 8.0 12.0 0.00 0.00 0.00 34 1014.1
20260506210655 79 202 12.0 16.0 0.00 0.00 0.00 34 1014.3
20260506205634 79 185 7.0 15.0 0.00 0.00 0.00 35 1014.4
20260506204631 79 204 8.0 14.0 0.00 0.00 0.00 36 1014.4
20260506203632 79 209 9.0 16.0 0.00 0.00 0.00 37 1014.5
20260506202629 79 213 8.0 11.0 0.00 0.00 0.00 37 1014.4
20260506201628 78 213 10.0 20.0 0.00 0.00 0.00 38 1014.6
20260506200626 77 211 14.0 19.0 0.00 0.00 0.00 38 1014.7
20260506195618 77 219 11.0 17.0 0.00 0.00 0.00 39 1014.9
20260506194658 76 213 12.0 17.0 0.00 0.00 0.00 38 1014.9
20260506193638 76 217 14.0 19.0 0.00 0.00 0.00 38 1014.8
20260506192633 76 205 12.0 18.0 0.00 0.00 0.00 40 1014.9
20260506191632 77 200 9.0 17.0 0.00 0.00 0.00 41 1014.8
20260506190631 75 200 10.0 14.0 0.00 0.00 0.00 40 1015.0
20260506185626 74 195 13.0 21.0 0.00 0.00 0.00 42 1014.8
20260506184708 74 195 9.0 14.0 0.00 0.00 0.00 45 1015.0
20260506183626 73 196 11.0 18.0 0.00 0.00 0.00 46 1014.9
20260506182623 73 213 13.0 20.0 0.00 0.00 0.00 46 1015.1
20260506181656 72 199 6.0 9.0 0.00 0.00 0.00 48 1015.3
20260506180634 72 213 8.0 15.0 0.00 0.00 0.00 49 1015.3
20260506175634 71 196 11.0 16.0 0.00 0.00 0.00 49 1015.2
20260506174634 71 214 13.0 20.0 0.00 0.00 0.00 48 1015.3
20260506173627 70 190 7.0 13.0 0.00 0.00 0.00 49 1015.2
20260506172626 70 193 11.0 13.0 0.00 0.00 0.00 49 1015.4
20260506171627 70 225 9.0 14.0 0.00 0.00 0.00 51 1015.7
20260506170626 69 195 7.0 11.0 0.00 0.00 0.00 53 1015.7
20260506165620 68 192 10.0 18.0 0.00 0.00 0.00 54 1015.8
20260506164658 68 201 8.0 13.0 0.00 0.00 0.00 55 1015.7
20260506163637 67 215 8.0 12.0 0.00 0.00 0.00 57 1015.9
20260506162636 67 217 13.0 18.0 0.00 0.00 0.00 56 1015.8
20260506161630 66 206 9.0 14.0 0.00 0.00 0.00 58 1015.8
20260506160631 65 206 16.0 19.0 0.00 0.00 0.00 60 1015.8
20260506155630 64 192 10.0 17.0 0.00 0.00 0.00 62 1015.6
20260506154627 64 194 9.0 13.0 0.00 0.00 0.00 62 1015.8
20260506153642 64 197 9.0 13.0 0.00 0.00 0.00 61 1015.7
20260506152624 64 198 9.0 13.0 0.00 0.00 0.00 62 1015.5
20260506151640 64 198 11.0 17.0 0.00 0.00 0.00 61 1015.5
20260506150638 63 201 10.0 15.0 0.00 0.00 0.00 63 1015.6
20260506145633 62 197 8.0 13.0 0.00 0.00 0.00 65 1015.4
20260506144635 62 199 10.0 12.0 0.00 0.00 0.00 66 1015.4
20260506143630 63 203 6.0 11.0 0.00 0.00 0.00 63 1015.4
20260506142632 65 193 8.0 10.0 0.00 0.00 0.00 54 1015.3
20260506141647 67 221 10.0 12.0 0.00 0.00 0.00 49 1015.2
20260506140641 67 246 5.0 13.0 0.00 0.00 0.00 46 1015.1
20260506135619 68 218 8.0 10.0 0.00 0.00 0.00 44 1015.1
20260506134639 68 247 5.0 7.0 0.00 0.00 0.00 43 1014.8
20260506133639 68 222 5.0 8.0 0.00 0.00 0.00 43 1014.7
20260506132632 67 235 5.0 10.0 0.00 0.00 0.00 44 1014.6
20260506131711 67 259 5.0 7.0 0.00 0.00 0.00 45 1014.5
20260506130631 66 234 7.0 11.0 0.00 0.00 0.00 45 1014.5
20260506125628 67 245 7.0 11.0 0.00 0.00 0.00 44 1014.2
20260506124622 67 253 9.0 12.0 0.00 0.00 0.00 44 1014.2
20260506123628 66 218 6.0 9.0 0.00 0.00 0.00 46 1014.2
20260506122623 66 225 6.0 10.0 0.00 0.00 0.00 46 1014.1
20260506121637 66 237 6.0 10.0 0.00 0.00 0.00 46 1014.1
20260506120655 67 236 6.0 9.0 0.00 0.00 0.00 45 1013.9
20260506115658 66 272 6.0 9.0 0.00 0.00 0.00 46 1013.9
20260506114633 66 232 7.0 10.0 0.00 0.00 0.00 48 1013.9
20260506113629 65 242 5.0 9.0 0.00 0.00 0.00 49 1013.5
20260506112626 65 256 4.0 6.0 0.00 0.00 0.00 49 1013.7
20260506111639 64 238 4.0 7.0 0.00 0.00 0.00 55 1013.7
20260506110647 60 266 2.0 3.0 0.00 0.00 0.00 64 1013.7
20260506105645 63 240 2.0 3.0 0.00 0.00 0.00 60 1013.6
20260506104642 62 205 0.0 2.0 0.00 0.00 0.00 61 1013.5
20260506103718 60 189 2.0 2.0 0.00 0.00 0.00 68 1013.4
20260506102633 61 329 3.0 4.0 0.00 0.00 0.00 65 1013.4
20260506101635 62 14 1.0 3.0 0.00 0.00 0.00 63 1013.2
20260506100627 62 209 1.0 2.0 0.00 0.00 0.00 65 1013.4
20260506095629 62 0.0 2.0 0.00 0.00 0.00 65 1013.3
20260506094629 65 120 1.0 2.0 0.00 0.00 0.00 56 1013.2
20260506093621 66 169 2.0 3.0 0.00 0.00 0.00 51 1013.2
20260506092626 66 349 2.0 4.0 0.00 0.00 0.00 53 1013.4
20260506091638 70 223 4.0 7.0 0.00 0.00 0.00 45 1012.9
20260506090638 69 237 6.0 9.0 0.00 0.00 0.00 48 1013.0
20260506085632 68 286 7.0 9.0 0.00 0.00 0.00 47 1013.2
20260506084633 70 286 5.0 6.0 0.00 0.00 0.00 45 1013.2
20260506083628 70 316 9.0 11.0 0.00 0.00 0.00 42 1013.0
20260506082630 71 297 3.0 6.0 0.00 0.00 0.00 41 1012.9
20260506081628 70 256 4.0 6.0 0.00 0.00 0.00 44 1012.8
20260506080624 71 246 5.0 6.0 0.00 0.00 0.00 43 1012.8
20260506072636 72 258 4.0 5.0 0.00 0.00 0.00 39 1012.7
20260506071629 73 320 2.0 3.0 0.00 0.00 0.00 38 1012.7
20260506070654 72 188 1.0 2.0 0.00 0.00 0.00 38 1012.6
20260506061641 73 215 3.0 4.0 0.00 0.00 0.00 39 1012.5
20260506060719 73 193 1.0 3.0 0.00 0.00 0.00 39 1012.5
20260506050624 74 212 6.0 9.0 0.00 0.00 0.00 37 1012.2
20260506044637 75 180 5.0 7.0 0.00 0.00 0.00 36 1012.3
20260506043633 74 209 5.0 10.0 0.00 0.00 0.00 38 1012.3
20260506042716 74 211 3.0 5.0 0.00 0.00 0.00 37 1012.3
20260506041628 75 208 4.0 5.0 0.00 0.00 0.00 36 1012.2
20260506040633 75 218 4.0 6.0 0.00 0.00 0.00 34 1012.2
20260506035623 76 218 4.0 6.0 0.00 0.00 0.00 32 1012.0
20260506034626 76 224 3.0 4.0 0.00 0.00 0.00 32 1012.0
20260506033623 75 209 2.0 3.0 0.00 0.00 0.00 33 1011.8
20260506032619 75 161 2.0 3.0 0.00 0.00 0.00 33 1011.9
20260506031722 76 227 1.0 2.0 0.00 0.00 0.00 34 1011.7
20260506030635 77 0.0 1.0 0.00 0.00 0.00 33 1011.8
20260506025633 79 217 2.0 2.0 0.00 0.00 0.00 33 1011.5
20260506024633 79 0.0 1.0 0.00 0.00 0.00 27 1011.5
20260506023642 80 21 2.0 2.0 0.00 0.00 0.00 27 1011.5
20260506022636 80 52 3.0 3.0 0.00 0.00 0.00 26 1011.5
20260506021624 81 66 3.0 4.0 0.00 0.00 0.00 26 1011.5
20260506020624 81 28 2.0 4.0 0.00 0.00 0.00 27 1011.7
20260506015622 82 87 1.0 2.0 0.00 0.00 0.00 25 1011.6
20260506014647 82 56 3.0 4.0 0.00 0.00 0.00 26 1011.5
20260506013656 82 29 4.0 5.0 0.00 0.00 0.00 25 1011.5
20260506012633 82 20 5.0 6.0 0.00 0.00 0.00 24 1011.5
20260506011634 82 15 6.0 8.0 0.00 0.00 0.00 24 1011.5
20260506010626 83 9 7.0 9.0 0.00 0.00 0.00 24 1011.5
20260506005647 82 24 3.0 4.0 0.00 0.00 0.00 24 1011.6
20260506004645 82 24 5.0 6.0 0.00 0.00 0.00 25 1011.8
20260506003624 83 16 6.0 8.0 0.00 0.00 0.00 24 1011.7
20260506002618 82 34 4.0 8.0 0.00 0.00 0.00 25 1011.8
20260506001635 82 42 7.0 9.0 0.00 0.00 0.00 25 1011.7
20260506000635 82 43 4.0 6.0 0.00 0.00 0.00 26 1011.8
20260505235632 83 44 7.0 10.0 0.00 0.00 0.00 24 1011.9
20260505234631 82 38 5.0 7.0 0.00 0.00 0.00 27 1012.0
20260505233629 82 326 3.0 4.0 0.00 0.00 0.00 27 1012.1
20260505232627 82 294 2.0 6.0 0.00 0.00 0.00 26 1012.1
20260505231625 82 23 5.0 6.0 0.00 0.00 0.00 25 1012.3
20260505230619 82 29 6.0 8.0 0.00 0.00 0.00 27 1012.3
20260505225617 82 25 9.0 15.0 0.00 0.00 0.00 27 1012.4
20260505224640 82 33 5.0 8.0 0.00 0.00 0.00 27 1012.5
20260505223658 81 54 6.0 13.0 0.00 0.00 0.00 28 1012.7